Alexandria, LA

8:57 PM CST on February 11, 2016 (GMT -0600)
Alexandria International

Weather History for KAEX - January, 2001

Change the Weather History Date:

Saturday, January 20, 2001

  Actual Average Record
Temperature  
Mean Temperature 32 °F 49 °F  
Max Temperature 39 °F 59 °F 87 °F (1895)
Min Temperature 26 °F 38 °F 15 °F (1940)
Degree Days  
Heating Degree Days 32 16  
Month to date heating degree days 320  
Since 1 July heating degree days 1109  
Moisture  
Dew Point 21 °F    
Average Humidity 66    
Maximum Humidity 92    
Minimum Humidity 49    
Precipitation  
Precipitation 0.00 in 0.17 in 3.60 in (1979)
Month to date precipitation 3.12  
Year to date precipitation 3.12  
Snow  
Snow 0.00 in - 2.00 in (1978)
Month to date snowfall  
Since 1 July snowfall  
Snow Depth -    
Sea Level Pressure  
Sea Level Pressure 30.38 in    
Wind  
Wind Speed 9 mph (NW)    
Max Wind Speed 13 mph    
Max Gust Speed -    
Visibility 10 miles    
Events      
T = Trace of Precipitation, MM = Missing Value Source: NWS Daily Summary

Daily Weather History Graph

Daily Weather History Graph

Search for Another Location

Airport or City:

Trip Planner

Search our weather history database for the weather conditions in past years. The results will help you decide how hot, cold, wet, or windy it might be!

Date:

Astronomy

Jan. 20, 2001 Rise Set
Actual Time 7:08 AM CST 5:34 PM CST
Civil Twilight 6:42 AM CST 6:00 PM CST
Nautical Twilight 6:12 AM CST 6:30 PM CST
Astronomical Twilight 5:43 AM CST 6:59 PM CST
Moon 4:00 AM CST (1/20) 2:35 PM CST (1/20)
Length of Visible Light 11h 18m
Length of Day
10h 26m
Waning Crescent, 13% of the Moon is Illuminated
Jan 20
Waning Crescent
Jan 24
New
Feb 1
First Quarter
Feb 8
Full
Feb 14
Last Quarter

Hourly Weather History & Observations

Time (CST) Temp. Windchill Dew Point Humidity Pressure Visibility Wind Dir Wind Speed Gust Speed Precip Events Conditions
12:53 AM 34.0 °F 25.5 °F 25.0 °F 70% 30.31 in 10.0 mi NW 11.5 mph - N/A   Clear
1:53 AM 32.0 °F 24.2 °F 25.0 °F 75% 30.32 in 10.0 mi NW 9.2 mph - N/A   Clear
2:53 AM 30.9 °F 21.2 °F 21.9 °F 69% 30.32 in 10.0 mi NNW 12.7 mph - N/A   Clear
3:53 AM 30.0 °F 20.5 °F 19.9 °F 66% 30.33 in 10.0 mi NNW 11.5 mph - N/A   Clear
4:53 AM 28.0 °F 19.3 °F 19.0 °F 69% 30.35 in 10.0 mi NNW 9.2 mph - N/A   Clear
5:53 AM 27.0 °F 18.0 °F 19.0 °F 72% 30.37 in 10.0 mi NNW 9.2 mph - N/A   Clear
6:53 AM 26.1 °F 19.4 °F 19.9 °F 78% 30.39 in 10.0 mi NW 5.8 mph - N/A   Clear
7:53 AM 27.0 °F 18.0 °F 18.0 °F 69% 30.42 in 10.0 mi NW 9.2 mph - N/A   Clear
8:53 AM 28.9 °F 18.6 °F 17.1 °F 61% 30.44 in 10.0 mi NNW 12.7 mph - N/A   Clear
9:53 AM 30.9 °F 24.3 °F 17.1 °F 57% 30.45 in 10.0 mi NNW 6.9 mph - N/A   Clear
10:53 AM 30.9 °F 22.2 °F 17.1 °F 57% 30.45 in 10.0 mi WNW 10.4 mph - N/A   Clear
11:53 AM 34.0 °F 27.2 °F 19.0 °F 54% 30.43 in 10.0 mi NW 8.1 mph - N/A   Clear
12:53 PM 35.1 °F 31.0 °F 19.9 °F 54% 30.41 in 10.0 mi Variable 4.6 mph - N/A   Clear
1:53 PM 37.0 °F 32.4 °F 21.0 °F 52% 30.38 in 10.0 mi NW 5.8 mph - N/A   Clear
2:53 PM 37.9 °F 32.1 °F 21.0 °F 51% 30.37 in 10.0 mi NW 8.1 mph - N/A   Clear
3:53 PM 39.0 °F 34.8 °F 21.0 °F 49% 30.36 in 10.0 mi WNW 5.8 mph - N/A   Clear
4:53 PM 39.0 °F 35.7 °F 21.0 °F 49% 30.35 in 10.0 mi WNW 4.6 mph - N/A   Clear
5:53 PM 36.0 °F - 23.0 °F 59% 30.37 in 10.0 mi Calm Calm - N/A   Clear
9:53 PM 28.0 °F 24.2 °F 25.0 °F 88% 30.40 in 10.0 mi SE 3.5 mph - N/A   Clear
10:53 PM 27.0 °F - 24.1 °F 89% 30.40 in 10.0 mi Calm Calm - N/A   Clear
11:53 PM 28.0 °F 24.2 °F 26.1 °F 92% 30.39 in 10.0 mi East 3.5 mph - N/A   Clear